Home > Weather > Langevåg > Past weeks

Flag for Norway Past Weather in Langevåg, Norway — Yesterday and Last 2 Weeks

Now
66 °F

Passing clouds.


Feels Like: 66 °F
Forecast: 58 / 68 °F
Wind: 9 mph from Northwest

Location: Alesund / Vigra

Current Time: Jul 24, 2016 at 4:54:13 PM

Latest Report: Jul 24, 2016 at 4:20 PM


Visibility: N/A

Pressure: 30.09 "Hg

Humidity: 78%

Dew Point: 59 °F

Location of LangevågLocation

Past Weather in Langevåg — Graph

°F

Langevåg Temperature Yesterday

Maximum temperature yesterday: 66 °F (at 1:50 PM)
Minimum temperature yesterday: 59 °F (at 2:20 AM)
Average temperature yesterday: 62 °F

High & Low Weather Summary for the Past Weeks

 TemperatureHumidityPressure
High82 °F (Jul 21, 4:20 PM)100% (Jul 10, 11:50 PM)30.12 "Hg (Jul 10, 11:50 PM)
Low48 °F (Jul 10, 2:50 AM)45% (Jul 21, 4:20 PM)29.45 "Hg (Jul 11, 1:20 AM)
Average59 °F84%29.85 "Hg
* Reported Jul 9 3:20 PM — Jul 24 3:50 PM, Langevåg, Weather by CustomWeather, © 2016

Note: Actual official high and low records may vary slightly from our data, if they occured in-between our weather recording intervals... More about our weather records

Advertising

Langevåg Weather History for the Previous 24 Hours

Scroll right to see more
 ConditionsComfort  
Time TempWeatherWind HumidityBarometerVisibility
3:50 PM
Sun, Jul 24
66 °FPassing clouds.9 mph78%30.09 "HgN/A
3:20 PM66 °FPassing clouds.10 mph78%30.09 "HgN/A
2:50 PM66 °FPassing clouds.10 mph78%30.09 "HgN/A
2:20 PM68 °FPassing clouds.9 mph78%30.09 "HgN/A
1:50 PM66 °FPassing clouds.8 mph78%30.09 "HgN/A
1:20 PM66 °FPassing clouds.9 mph78%30.09 "HgN/A
12:50 PM68 °FScattered clouds.6 mph73%30.09 "HgN/A
12:20 PM64 °FScattered clouds.7 mph88%30.09 "HgN/A
11:50 AM66 °FBroken clouds.6 mph83%30.09 "HgN/A
11:20 AM64 °FPartly sunny.3 mph88%30.09 "HgN/A
10:50 AM64 °FDrizzle. Partly sunny.2 mph88%30.09 "HgN/A
10:20 AM64 °FRain. Broken clouds.3 mph88%30.09 "HgN/A
9:50 AM64 °FSunny.2 mph83%30.09 "Hg10 mi
9:20 AM66 °FSunny.2 mph78%30.09 "Hg10 mi
8:50 AM66 °FPassing clouds.5 mph78%30.09 "HgN/A
8:20 AM64 °FPassing clouds.3 mph83%30.09 "HgN/A
7:50 AM64 °FSunny.6 mph83%30.09 "Hg10 mi
7:20 AM64 °FSunny.3 mph83%30.09 "Hg10 mi
6:50 AM63 °FPassing clouds.7 mph88%30.09 "HgN/A
6:20 AM61 °FSunny.3 mph88%30.09 "Hg10 mi
5:50 AM59 °FSunny.8 mph94%30.09 "Hg10 mi
5:20 AM59 °FPartly cloudy.6 mph94%30.09 "HgN/A
4:50 AM59 °FOvercast.7 mph94%30.09 "HgN/A
4:20 AM59 °FOvercast.6 mph94%30.09 "HgN/A
3:50 AM59 °FOvercast.2 mph94%30.09 "HgN/A
3:20 AM59 °FPassing clouds.5 mph94%30.09 "HgN/A
2:50 AM59 °FOvercast.6 mph94%30.09 "HgN/A
2:20 AM59 °FPassing clouds.6 mph88%30.09 "HgN/A
1:50 AM57 °FCool.2 mph94%30.09 "HgN/A
1:20 AM59 °FPassing clouds.5 mph94%30.12 "HgN/A
12:50 AM59 °FPassing clouds.6 mph94%30.09 "HgN/A
12:20 AM59 °FCool.7 mph88%30.12 "HgN/A
11:50 PM
Sat, Jul 23
59 °FPassing clouds.7 mph88%30.12 "HgN/A
11:20 PM61 °FPassing clouds.10 mph88%30.09 "HgN/A
10:50 PM59 °FScattered clouds.3 mph88%30.12 "HgN/A
10:20 PM61 °FBroken clouds.2 mph83%30.12 "HgN/A
9:50 PM63 °FBroken clouds.No wind83%30.12 "HgN/A
9:20 PM63 °FPartly sunny.3 mph83%30.12 "HgN/A
8:50 PM63 °FPartly sunny.3 mph77%30.12 "HgN/A
8:20 PM63 °FPartly sunny.3 mph83%30.12 "HgN/A
7:50 PM63 °FPartly sunny.3 mph83%30.12 "HgN/A
7:20 PM63 °FPartly sunny.3 mph83%30.12 "HgN/A
6:50 PM64 °FPartly sunny.5 mph78%30.12 "HgN/A
6:20 PM64 °FPartly sunny.5 mph78%30.12 "HgN/A
5:50 PM64 °FPartly sunny.7 mph78%30.12 "HgN/A
5:20 PM64 °FPartly sunny.8 mph73%30.12 "HgN/A
4:50 PM64 °FPartly sunny.8 mph83%30.12 "HgN/A
4:20 PM64 °FPartly sunny.7 mph78%30.12 "HgN/A
Weather by CustomWeather, © 2016

See weather overviewHow to use our weather pages